Location: *
(57.8420°S, 159.8600°W)
Time: 11:12:00
(UTC+00:00)

DMSP B5D2-2 - Pass Details

Date: 18 May 2021
Orbit: 790 x 805 km, 98.3° (Epoch: 22 June)

Event Time Altitude Azimuth Distance (km) Brightness Sun altitude
Rises 03:52:36 0° 39° (NE) 3,318 7.1 -10.9°
Reaches altitude 10° 03:54:59 10° 44° (NE) 2,392 6.3 -11.2°
Maximum altitude 04:00:03 48° 117° (ESE) 1,050 4.3 -11.9°
Drops below altitude 10° 04:05:09 10° 190° (S) 2,406 6.5 -12.5°
Sets 04:07:33 0° 195° (SSW) 3,340 7.3 -12.8°
